| time (UTC) | temp C | wind direction | speed KPH | gust KPH | rain 1hr cm | rain 24hr cm | rain mn cm | humidity % | barometer mb |
| 20260504151038 | 28 | 10 | 6.4 | 0.0 | 0.00 | 0.00 | 0.00 | 69 | 1012.0 |
| 20260504141035 | 27 | 90 | 6.4 | 0.0 | 0.00 | 0.00 | 0.00 | 69 | 1012.0 |
| 20260504081018 | 27 | 126 | 8.0 | 17.7 | 0.00 | 0.00 | 0.00 | 69 | 1011.0 |
| 20260504050009 | 29 | 120 | 14.5 | 0.0 | 0.00 | 0.00 | 0.00 | 68 | 1013.0 |
| 20260504045008 | 29 | 120 | 14.5 | 0.0 | 0.00 | 0.00 | 0.00 | 67 | 1013.0 |
| 20260504044008 | 31 | 110 | 17.7 | 0.0 | 0.00 | 0.00 | 0.00 | 60 | 1013.0 |
| 20260504043007 | 31 | 110 | 17.7 | 0.0 | 0.00 | 0.00 | 0.00 | 60 | 1013.0 |
| 20260504042007 | 31 | 110 | 17.7 | 0.0 | 0.00 | 0.00 | 0.00 | 60 | 1013.0 |
| 20260504041006 | 31 | 110 | 17.7 | 0.0 | 0.00 | 0.00 | 0.00 | 57 | 1013.0 |
| 20260504040006 | 31 | 110 | 17.7 | 0.0 | 0.00 | 0.00 | 0.00 | 53 | 1013.0 |
| 20260504035005 | 31 | 110 | 17.7 | 0.0 | 0.00 | 0.00 | 0.00 | 53 | 1013.0 |
| 20260504034005 | 31 | 110 | 17.7 | 0.0 | 0.00 | 0.00 | 0.00 | 52 | 1012.0 |
| 20260504033004 | 31 | 110 | 17.7 | 0.0 | 0.00 | 0.00 | 0.00 | 49 | 1012.0 |
| 20260504032004 | 31 | 140 | 6.4 | 0.0 | 0.00 | 0.00 | 0.00 | 49 | 1012.0 |
| 20260504031003 | 31 | 140 | 6.4 | 0.0 | 0.00 | 0.00 | 0.00 | 49 | 1012.0 |
| 20260504030003 | 31 | 140 | 6.4 | 0.0 | 0.00 | 0.00 | 0.00 | 49 | 1012.0 |
| 20260504025002 | 31 | 140 | 6.4 | 0.0 | 0.00 | 0.00 | 0.00 | 49 | 1012.0 |
| 20260504024002 | 31 | 140 | 6.4 | 0.0 | 0.00 | 0.00 | 0.00 | 49 | 1012.0 |
| 20260504023001 | 31 | 140 | 6.4 | 0.0 | 0.00 | 0.00 | 0.00 | 49 | 1012.0 |
| 20260504022001 | 31 | 140 | 6.4 | 0.0 | 0.00 | 0.00 | 0.00 | 49 | 1011.0 |
| 20260504021000 | 31 | 140 | 6.4 | 0.0 | 0.00 | 0.00 | 0.00 | 49 | 1011.0 |
| 20260504020000 | 31 | 151 | 6.4 | 16.1 | 0.00 | 0.00 | 0.00 | 49 | 1011.0 |
| 20260504015000 | 30 | 151 | 6.4 | 16.1 | 0.00 | 0.00 | 0.00 | 49 | 1011.0 |
| 20260504013959 | 30 | 151 | 6.4 | 16.1 | 0.00 | 0.00 | 0.00 | 49 | 1010.0 |
| 20260504012959 | 32 | 120 | 17.7 | 0.0 | 0.00 | 0.00 | 0.00 | 49 | 1009.0 |
| 20260504011958 | 32 | 120 | 17.7 | 0.0 | 0.00 | 0.00 | 0.00 | 49 | 1009.0 |
| 20260504010958 | 31 | 120 | 17.7 | 0.0 | 0.00 | 0.00 | 0.00 | 49 | 1009.0 |
| 20260504005957 | 31 | 120 | 17.7 | 0.0 | 0.00 | 0.00 | 0.00 | 49 | 1009.0 |
| 20260504004956 | 33 | 120 | 17.7 | 0.0 | 0.00 | 0.00 | 0.00 | 44 | 1009.0 |
| 20260504003956 | 33 | 120 | 17.7 | 0.0 | 0.00 | 0.00 | 0.00 | 44 | 1009.0 |
| 20260504002956 | 33 | 120 | 17.7 | 0.0 | 0.00 | 0.00 | 0.00 | 42 | 1008.0 |
| 20260504001955 | 33 | 120 | 17.7 | 0.0 | 0.00 | 0.00 | 0.00 | 42 | 1008.0 |
| 20260504000955 | 33 | 120 | 17.7 | 0.0 | 0.00 | 0.00 | 0.00 | 42 | 1008.0 |
| 20260503235954 | 33 | 120 | 17.7 | 0.0 | 0.00 | 0.00 | 0.00 | 42 | 1008.0 |
| 20260503234954 | 33 | 120 | 17.7 | 0.0 | 0.00 | 0.00 | 0.00 | 42 | 1008.0 |
| 20260503233953 | 34 | 120 | 20.9 | 0.0 | 0.00 | 0.00 | 0.00 | 41 | 1007.0 |
| 20260503232953 | 34 | 120 | 20.9 | 0.0 | 0.00 | 0.00 | 0.00 | 41 | 1007.0 |
| 20260503231952 | 34 | 120 | 20.9 | 0.0 | 0.00 | 0.00 | 0.00 | 41 | 1007.0 |
| 20260503230952 | 34 | 120 | 20.9 | 0.0 | 0.00 | 0.00 | 0.00 | 41 | 1007.0 |
| 20260503225951 | 34 | 120 | 20.9 | 0.0 | 0.00 | 0.00 | 0.00 | 41 | 1007.0 |
| 20260503224950 | 34 | 120 | 20.9 | 0.0 | 0.00 | 0.00 | 0.00 | 41 | 1007.0 |
| 20260503223950 | 36 | 120 | 20.9 | 0.0 | 0.00 | 0.00 | 0.00 | 41 | 1007.0 |
| 20260503222950 | 36 | 120 | 20.9 | 0.0 | 0.00 | 0.00 | 0.00 | 41 | 1007.0 |
| 20260503221949 | 36 | 120 | 20.9 | 0.0 | 0.00 | 0.00 | 0.00 | 41 | 1007.0 |
| 20260503220949 | 36 | 100 | 20.9 | 0.0 | 0.00 | 0.00 | 0.00 | 41 | 1007.0 |
| 20260503215948 | 36 | 100 | 20.9 | 0.0 | 0.00 | 0.00 | 0.00 | 41 | 1007.0 |
| 20260503214948 | 36 | 100 | 20.9 | 0.0 | 0.00 | 0.00 | 0.00 | 41 | 1007.0 |
| 20260503213947 | 36 | 100 | 20.9 | 0.0 | 0.00 | 0.00 | 0.00 | 41 | 1007.0 |
| 20260503212947 | 36 | 100 | 20.9 | 0.0 | 0.00 | 0.00 | 0.00 | 41 | 1008.0 |
| 20260503211946 | 36 | 100 | 20.9 | 0.0 | 0.00 | 0.00 | 0.00 | 41 | 1008.0 |
| 20260503210945 | 36 | 100 | 20.9 | 0.0 | 0.00 | 0.00 | 0.00 | 41 | 1008.0 |
| 20260503205945 | 36 | 100 | 20.9 | 0.0 | 0.00 | 0.00 | 0.00 | 41 | 1007.0 |
| 20260503204945 | 36 | 100 | 20.9 | 0.0 | 0.00 | 0.00 | 0.00 | 42 | 1007.0 |
| 20260503203944 | 36 | 100 | 20.9 | 0.0 | 0.00 | 0.00 | 0.00 | 44 | 1008.0 |
| 20260503202943 | 36 | 100 | 20.9 | 0.0 | 0.00 | 0.00 | 0.00 | 47 | 1008.0 |
| 20260503201943 | 36 | 100 | 20.9 | 0.0 | 0.00 | 0.00 | 0.00 | 52 | 1008.0 |
| 20260503200942 | 36 | 90 | 17.7 | 0.0 | 0.00 | 0.00 | 0.00 | 52 | 1008.0 |
| 20260503195942 | 36 | 90 | 17.7 | 0.0 | 0.00 | 0.00 | 0.00 | 52 | 1008.0 |
| 20260503194941 | 36 | 90 | 17.7 | 0.0 | 0.00 | 0.00 | 0.00 | 52 | 1008.0 |
| 20260503193941 | 35 | 90 | 17.7 | 0.0 | 0.00 | 0.00 | 0.00 | 52 | 1009.0 |
| 20260503192940 | 35 | 90 | 17.7 | 0.0 | 0.00 | 0.00 | 0.00 | 52 | 1010.0 |
| 20260503191940 | 35 | 90 | 17.7 | 0.0 | 0.00 | 0.00 | 0.00 | 52 | 1010.0 |
| 20260503190939 | 35 | 90 | 17.7 | 0.0 | 0.00 | 0.00 | 0.00 | 52 | 1010.0 |
| 20260503184929 | 34 | 90 | 17.7 | 0.0 | 0.00 | 0.00 | 0.00 | 52 | 1009.0 |
| 20260503183928 | 34 | 90 | 17.7 | 0.0 | 0.00 | 0.00 | 0.00 | 55 | 1010.0 |
| 20260503182928 | 33 | 90 | 17.7 | 0.0 | 0.00 | 0.00 | 0.00 | 55 | 1011.0 |
| 20260503181928 | 33 | 90 | 17.7 | 0.0 | 0.00 | 0.00 | 0.00 | 55 | 1011.0 |
| 20260503180927 | 33 | 90 | 17.7 | 0.0 | 0.00 | 0.00 | 0.00 | 55 | 1011.0 |
| 20260503175927 | 33 | 90 | 17.7 | 0.0 | 0.00 | 0.00 | 0.00 | 55 | 1011.0 |
| 20260503174926 | 32 | 90 | 17.7 | 0.0 | 0.00 | 0.00 | 0.00 | 55 | 1011.0 |
| 20260503173926 | 32 | 90 | 17.7 | 0.0 | 0.00 | 0.00 | 0.00 | 56 | 1012.0 |
| 20260503172925 | 32 | 90 | 17.7 | 0.0 | 0.00 | 0.00 | 0.00 | 56 | 1012.0 |
| 20260503171925 | 32 | 90 | 17.7 | 0.0 | 0.00 | 0.00 | 0.00 | 58 | 1012.0 |
| 20260503170924 | 32 | 90 | 17.7 | 0.0 | 0.00 | 0.00 | 0.00 | 58 | 1012.0 |